CDT,Max TemperatureF,Mean TemperatureF,Min TemperatureF,Max Dew PointF,MeanDew PointF,Min DewpointF,Max Humidity, Mean Humidity, Min Humidity, Max Sea Level PressureIn, Mean Sea Level PressureIn, Min Sea Level PressureIn, Max VisibilityMiles, Mean VisibilityMiles, Min VisibilityMiles, Max Wind SpeedMPH, Mean Wind SpeedMPH, Max Gust SpeedMPH,PrecipitationIn, CloudCover, Events, WindDirDegrees
2013-4-1,28,24,19,13,9,5,62,51,43,30.13,30.07,29.91,10,10,10,18,9,30,0.00,3,,291
2013-4-2,32,24,17,13,11,8,73,55,39,30.30,30.21,30.13,10,10,10,15,6,24,0.00,0,,281
2013-4-3,38,23,9,17,10,5,90,55,27,30.45,30.33,30.19,10,10,10,13,3,20,0.00,0,,179
2013-4-4,46,37,28,30,22,17,65,56,45,30.18,30.03,29.96,10,10,10,16,9,24,0.00,2,Rain,250
2013-4-5,38,28,19,28,18,14,96,62,37,30.25,30.17,30.08,10,10,1,9,3,,0.03,2,Rain-Snow,103
2013-4-6,45,36,27,42,31,25,98,84,60,30.12,29.76,29.49,10,8,2,17,10,29,0.05,7,Rain,123
2013-4-7,42,36,31,35,29,27,94,79,63,29.95,29.84,29.56,10,10,7,13,7,21,0.03,5,,277
2013-4-8,36,34,32,34,32,28,100,91,82,30.02,29.85,29.74,10,8,1,14,7,18,0.10,7,Rain,68
2013-4-9,37,34,30,36,32,23,100,93,67,30.09,30.03,29.98,10,6,0,21,7,29,0.71,8,Fog-Rain,49
2013-4-10,34,30,26,30,26,16,96,83,51,30.14,30.05,29.97,10,9,1,16,9,28,0.59,8,Thunderstorm,55
2013-4-11,32,30,27,29,25,17,94,83,53,29.97,29.78,29.64,10,6,1,30,15,41,0.07,7,Snow,71
2013-4-12,32,30,27,29,27,25,95,91,82,29.73,29.64,29.57,10,6,1,7,5,,0.00,8,Rain-Snow,19
2013-4-13,33,28,24,29,23,18,96,77,57,29.97,29.83,29.72,10,8,2,16,7,24,0.00,6,Snow,277
2013-4-14,34,26,18,32,25,16,100,90,73,30.01,29.86,29.62,10,8,0,23,6,33,0.22,6,Rain-Snow,84
2013-4-15,47,39,32,36,30,25,100,77,45,29.93,29.74,29.58,10,7,0,21,8,36,0.21,5,Fog-Rain,246
2013-4-16,42,35,28,27,26,24,88,69,52,30.32,30.13,29.94,10,10,10,14,7,21,0.00,5,,275
2013-4-17,36,30,25,33,28,23,97,83,71,30.35,30.19,29.93,10,10,3,17,8,39,0.03,5,Rain,67
2013-4-18,39,36,33,38,35,33,100,97,93,29.90,29.55,29.26,10,5,1,18,11,26,0.11,8,Rain-Snow,59
2013-4-19,34,30,24,34,22,14,94,76,55,29.89,29.46,29.21,10,8,1,20,14,31,0.02,7,Rain-Snow,283
2013-4-20,37,28,20,18,12,6,80,54,32,30.36,30.17,29.90,10,10,10,13,6,21,0.00,0,,307
2013-4-21,41,32,22,32,27,16,96,80,64,30.46,30.33,30.17,10,8,0,17,6,28,0.01,6,Rain-Snow,136
2013-4-22,44,42,39,43,39,34,96,89,76,30.20,30.12,29.98,10,8,4,12,7,17,0.19,8,Rain,141
2013-4-23,44,35,25,44,30,22,99,80,62,30.02,29.96,29.86,10,8,2,16,7,22,0.09,7,Rain,318
2013-4-24,48,34,19,32,21,15,96,62,35,30.01,29.97,29.90,10,10,10,20,4,28,0.00,2,Rain,255
2013-4-25,45,36,28,33,27,23,97,71,42,30.23,30.11,29.89,10,10,7,20,10,23,0.00,5,Rain,266
2013-4-26,68,47,26,44,34,22,87,56,30,30.23,30.14,30.06,10,10,5,23,6,30,0.03,5,Rain,198
2013-4-27,69,56,44,46,43,40,92,64,38,30.17,30.10,30.01,10,10,10,15,8,21,0.00,1,,200
2013-4-28,70,52,35,43,38,34,96,60,28,30.01,29.88,29.76,10,10,5,13,3,20,0.00,0,,175
2013-4-29,70,58,48,52,48,40,95,70,48,29.81,29.77,29.70,10,10,7,22,3,25,0.01,6,Rain,172
2013-4-30,82,68,56,54,51,36,88,56,34,29.94,29.69,29.61,10,10,10,24,11,31,0.03,3,,209